sat.trackr.live / text

‹ back to catalog

STARLINK-34468

NORAD 64424 · 2025-129N

PAYLOAD ACTIVE UNKNOWN

§ Identity

Operator
Country
US
Launch date
2025-06-17
Launch site
AFWTR
Launch vehicle
Mass (kg)
RCS (m²)

Purposes: comms

External: N2YO · Heavens-Above · Gunter

§ Orbital elements

Epoch: 2026-09-20T11:39:02.440224Z

Period
94.14 min
Inclination
70.0004°
Eccentricity
0.0003571
Mean motion
15.29587752 rev/d
Perigee alt
474.6 km
Apogee alt
479.5 km
Semi-major
6,855.2 km
B*
2.7056e-4
RAAN
301.0009°
Arg perigee
267.1284°
Mean anomaly
92.9483°
Rev number
7,052

§ Raw data

STARLINK-344681 64424U 25129N   26263.48544491  .00007660  00000+0  27056-3 0  99982 64424  70.0004 301.0009 0003571 267.1284  92.9483 15.29587752 70522

JSON: /api/v1/satellites/64424 · /tle

For live sub-satellite position, see the globe view (requires WebGL).

§ Visibility from observer

Set your observer location to see the next 7 days of passes ≥ 10°. The values pass through the URL so the page stays shareable.

No JS? Fill the form by hand. The geolocation button needs JavaScript.